SCP
0 0 0 0 0 0 0 0 0 0 0 1 1 2 3 4 4 3 3 4 4 4 4 4 4 4 4 5 7 7 5 4 4 4 5 5 5 5 4 3 3 3 3 3
0 0 0 0 0 0 0 0 0 0 0 0 1 2 3 4 4 4 3 4 4 3 3 4 4 4 4 5 6 6 5 5 4 4 5 5 5 5 4 4 4 4 4 4
0 0 0 0 0 0 0 0 0 0 0 0 1 1 2 3 3 4 3 3 3 3 3 3 4 4 5 5 5 5 5 5 5 5 5 6 6 6 5 5 5 5 5 5
0 0 0 0 0 0 0 0 0 0 0 0 0 1 1 2 3 3 3 3 3 3 3 3 3 4 5 5 4 4 5 5 5 5 6 7 6 6 6 6 6 5 5 5
0 0 0 0 0 0 0 0 0 0 0 0 0 0 1 1 2 3 3 3 3 3 3 3 3 4 5 5 5 5 5 5 5 5 6 7 6 6 6 6 5 5 5 5
0 0 0 0 0 0 0 0 0 0 0 0 0 0 1 1 2 3 3 4 4 3 3 3 4 4 5 6 6 6 6 5 5 5 5 6 6 6 6 5 5 5 5 5
0 0 0 0 0 0 0 0 0 0 0 0 0 1 1 2 2 3 3 3 3 3 3 4 4 4 5 6 6 6 5 5 5 5 5 5 5 5 6 6 6 6 6 6
0 0 0 0 0 0 0 0 0 0 0 0 1 1 2 2 2 2 2 2 2 2 3 3 3 3 4 4 4 4 3 4 3 3 4 4 4 5 6 5 5 5 6 6
0 0 0 0 0 0 0 0 0 0 0 1 1 1 2 2 2 2 2 2 1 1 1 1 1 1 1 2 2 2 1 1 1 1 2 2 2 3 4 3 3 3 3 3
0 0 0 0 0 0 0 0 0 0 0 0 1 1 1 2 2 2 1 1 1 1 1 1 0 0 0 1 1 0 0 0 0 0 0 0 1 1 1 1 1 0 0 0
0 0 0 0 0 0 0 0 0 0 0 0 0 1 1 2 2 2 1 1 1 1 0 0 0 0 0 0 0 0 0 0 0 0 0 0 0 0 0 0 0 0 0 0
0 0 0 0 0 0 0 0 0 0 0 0 0 1 1 2 2 1 1 1 1 0 0 0 0 0 0 0 0 0 0 0 0 0 0 0 0 0 0 0 0 0 0 0
0 0 0 0 0 0 0 0 0 1 0 0 0 1 1 2 2 1 1 1 1 0 0 0 0 0 0 0 0 0 0 0 0 0 0 0 0 0 0 0 0 0 0 0
0 0 0 0 0 0 0 0 1 1 1 1 1 1 1 1 1 1 1 1 0 0 0 0 0 0 0 0 0 0 0 0 0 0 0 0 0 0 0 0 0 0 0 0
0 0 0 0 0 0 0 0 1 1 1 1 1 1 1 1 1 1 1 1 0 0 0 0 0 0 0 0 0 0 0 0 0 0 0 0 0 0 0 0 0 0 0 0
0 0 0 0 0 0 0 1 1 1 1 1 1 1 1 1 1 1 1 1 1 0 0 0 0 0 0 0 0 0 0 0 0 0 0 0 0 0 0 0 0 0 0 0
0 0 0 0 0 0 0 1 1 1 1 1 1 1 1 1 1 1 1 1 0 0 0 0 0 0 0 0 0 0 0 0 0 0 0 0 0 0 0 0 0 0 0 0
0 0 0 0 0 0 0 0 1 1 1 1 1 1 1 1 1 1 0 0 0 0 0 0 0 0 0 0 0 0 0 0 0 0 0 0 0 0 0 0 0 0 0 0
0 0 0 0 0 0 0 0 0 0 1 1 1 1 1 1 1 0 0 0 0 0 0 0 0 0 0 0 0 0 0 0 0 0 0 0 0 0 0 0 0 0 0 0
0 0 0 0 0 0 0 0 0 0 0 0 0 0 0 0 0 0 0 0 0 0 0 0 0 0 0 0 0 0 0 0 0 0 0 0 0 0 0 0 0 0 0 0
0 0 0 0 0 0 0 0 0 0 0 0 0 0 0 0 0 0 0 0 0 0 0 0 0 0 0 0 0 0 0 0 0 0 0 0 0 0 0 0 0 0 0 0
0 0 0 0 0 0 0 0 0 0 0 0 0 0 0 0 0 0 0 0 0 0 0 0 0 0 0 0 0 0 0 0 0 0 0 0 0 0 0 0 0 0 0 0
0 0 0 0 0 0 0 0 0 0 0 0 0 0 0 0 0 0 0 0 0 0 0 0 0 0 0 0 0 0 0 0 0 0 0 0 0 0 0 0 0 0 0 0
0 0 0 0 0 0 0 0 0 0 0 0 0 0 0 0 0 0 0 0 0 0 0 0 0 0 0 0 0 0 0 0 0 0 0 0 0 0 0 0 0 0 0 0
0 0 0 0 0 0 0 0 0 0 0 0 0 0 0 0 0 0 0 0 0 0 0 0 0 0 0 0 0 0 0 0 0 0 0 0 0 0 0 0 0 0 0 0
0 0 0 0 0 0 0 0 0 0 0 0 0 0 0 0 0 0 0 0 0 0 0 0 0 0 0 0 0 0 0 0 0 0 0 0 0 0 0 0 0 0 0 0
Wind_Speed
6 9 8 5 7 5 3 5 5 3 2 2 5 5 5 6 6 6 6 6 7 7 7 6 4 3 3 3 5 6 7 8 7 7 8 8 7 5 4 3 4 4 4 5
8 9 4 3 5 7 7 8 6 5 3 2 5 5 6 7 8 8 7 7 7 7 8 7 6 5 4 3 2 3 5 6 7 6 6 5 5 4 3 2 2 1 2 2
8 1 2 6 8 9 9 9 6 4 4 5 6 6 7 8 9 9 8 8 9 8 8 8 8 7 6 4 3 1 1 2 4 5 5 5 4 4 4 3 2 2 2 1
6 3 5 8 7 8 8 6 6 6 8 8 9 7 8 8 8 8 8 9 9 9 9 9 9 9 8 7 5 4 3 2 1 3 6 7 6 5 3 3 4 5 5 5
3 4 6 7 6 7 5 3 7 8 9 7 9 8 9 8 7 8 8 8 9 10 10 10 10 10 10 9 7 7 6 6 4 3 4 5 4 3 4 6 7 6 6 7
5 3 5 5 4 6 5 6 6 8 9 11 8 8 6 6 6 8 8 8 9 10 10 11 11 11 11 11 10 9 9 9 7 6 5 5 6 7 8 7 7 6 6 7
5 6 5 4 6 7 8 8 7 10 10 7 5 6 6 8 7 9 10 9 9 9 10 10 11 11 12 12 12 11 12 11 10 9 9 8 9 9 9 8 8 7 6 7
3 3 2 2 5 4 7 10 8 7 7 5 7 4 9 9 10 11 10 10 10 10 10 11 12 12 12 13 13 13 14 14 14 13 13 12 12 9 8 10 8 8 7 8
4 1 3 0 3 6 6 7 6 7 6 5 4 7 8 9 10 10 10 10 10 10 10 11 11 12 12 13 13 13 14 15 15 15 15 15 14 13 13 12 11 9 8 8
5 5 1 0 5 3 4 3 5 8 7 7 6 8 7 13 11 10 9 10 10 10 10 10 10 11 12 12 13 14 15 15 15 14 13 13 14 14 13 12 13 12 11 10
5 6 1 2 1 1 3 3 5 6 7 7 5 4 6 8 11 11 11 10 10 10 10 10 10 11 12 12 13 13 14 14 14 14 14 14 13 13 13 12 12 11 11 10
3 6 2 2 3 2 2 3 4 6 6 7 6 5 6 4 10 12 12 11 10 10 10 10 10 11 12 12 12 13 13 13 13 13 13 13 13 13 13 13 12 11 11 10
3 4 4 6 6 3 1 3 4 5 6 6 7 5 7 8 11 11 12 11 11 11 11 10 10 11 11 12 12 12 12 12 12 12 13 13 12 13 12 12 11 10 10 9
5 3 5 4 4 3 2 3 4 6 6 5 2 5 7 8 9 10 11 12 11 11 10 10 10 10 10 10 11 11 11 11 11 11 12 12 12 11 11 11 10 10 9 9
4 1 3 4 4 3 4 5 5 5 7 5 3 4 5 4 6 9 11 12 12 11 11 11 11 10 10 10 10 10 10 10 10 11 12 11 11 10 10 10 9 8 8 8
2 0 1 3 4 4 5 6 6 5 6 4 3 6 6 6 7 8 9 11 11 11 12 12 11 11 10 9 9 9 10 9 9 11 11 10 10 9 9 8 8 7 7 7
0 2 3 1 2 4 3 7 7 5 6 5 4 6 7 8 8 7 7 9 10 11 12 11 11 10 9 8 8 9 9 9 9 9 9 9 8 8 8 7 7 7 6 5
1 2 2 1 3 1 6 5 5 4 6 6 7 8 8 9 9 8 7 9 10 11 11 11 10 10 9 9 8 8 8 9 9 9 8 8 7 8 7 6 6 6 5 5
3 3 2 3 1 4 5 3 4 3 4 5 6 8 10 11 11 9 8 10 11 11 10 10 9 10 9 9 8 8 8 8 8 8 7 7 6 6 6 6 5 5 4 5
2 2 3 2 3 2 5 5 3 3 3 5 4 6 7 6 5 6 8 11 12 11 10 10 9 9 8 8 7 8 8 8 8 7 6 6 5 5 5 5 5 4 4 4
1 0 2 2 1 5 6 4 4 3 5 4 3 5 5 5 7 11 12 11 12 12 11 10 10 8 8 7 7 7 7 7 7 6 5 5 4 4 4 4 4 4 4 4
3 1 1 2 1 4 5 3 4 6 5 5 6 7 10 13 14 13 13 12 12 12 11 10 9 8 7 6 6 7 7 6 5 4 4 4 3 3 4 3 3 3 3 2
2 5 3 4 6 7 5 6 5 4 6 6 7 10 13 14 14 13 12 11 11 11 10 9 9 9 7 6 5 7 6 4 4 3 3 3 3 3 3 2 2 2 2 3
4 1 2 4 6 6 6 6 6 6 7 8 9 12 13 14 14 13 12 11 10 10 10 9 9 9 7 6 6 5 4 3 2 3 2 2 2 3 3 2 2 3 4 5
4 4 3 4 7 8 6 6 8 9 10 10 11 12 13 14 14 13 11 11 10 9 8 8 8 8 8 6 5 4 3 2 1 2 1 1 2 3 2 3 4 5 7 7
3 2 2 2 7 6 8 9 10 11 11 12 13 12 12 13 13 12 11 10 10 9 8 8 7 7 6 5 4 3 2 1 1 1 1 1 1 2 1 2 4 5 4 3
Wind_Direction
197 228 227 220 231 278 270 239 204 163 128 193 158 126 82 71 73 82 83 89 89 81 71 64 67 81 111 139 168 182 193 192 194 195 196 192 191 190 196 207 208 212 220 215
210 227 244 239 224 236 238 235 208 178 158 208 152 126 94 72 72 66 70 73 73 74 67 56 51 54 60 84 112 173 193 194 199 199 197 192 184 174 181 192 175 195 213 218
248 38 163 219 209 221 229 240 224 190 171 189 180 168 136 104 90 80 71 67 63 60 59 54 46 40 40 41 43 44 190 185 196 190 185 170 168 180 178 169 135 85 80 95
247 230 220 230 224 231 228 226 234 214 221 200 217 206 150 136 111 86 72 65 59 59 58 53 46 38 34 32 37 42 51 75 131 175 179 176 179 186 173 135 109 87 75 75
231 221 230 237 240 237 256 245 232 229 237 235 211 235 148 157 135 101 79 67 61 57 54 52 47 40 36 33 39 49 57 58 66 99 146 161 160 133 106 103 101 92 77 70
262 236 257 266 255 234 237 222 219 229 230 228 213 234 167 147 139 120 97 77 65 60 58 54 50 47 43 41 44 48 55 55 59 68 84 114 119 119 112 103 95 84 74 66
215 200 203 250 239 197 223 228 213 209 214 212 173 224 101 96 107 114 105 89 74 65 61 56 52 49 46 45 46 51 57 57 58 65 69 78 88 93 98 98 94 91 83 71
255 177 159 228 259 236 219 240 252 248 229 182 178 185 104 103 101 106 103 96 83 69 62 58 53 52 51 50 50 54 57 57 57 61 62 64 71 77 80 84 88 83 78 75
320 26 108 347 264 272 223 236 281 280 270 250 176 122 126 131 124 119 112 101 89 78 69 63 59 57 57 55 54 59 63 63 61 64 68 68 68 72 77 78 77 76 78 80
315 298 14 218 217 200 288 266 252 253 251 243 197 194 170 164 152 137 122 108 100 91 79 71 67 66 65 64 64 63 66 66 66 65 67 72 72 75 77 78 79 79 76 76
307 286 239 194 328 338 226 222 264 267 279 273 240 118 62 151 154 143 128 117 110 101 92 84 79 75 73 71 70 70 70 71 71 72 73 74 75 76 78 78 78 79 78 76
341 297 298 83 76 328 323 332 287 273 260 269 283 86 54 116 139 134 127 121 113 106 99 94 88 83 78 74 73 73 73 75 75 77 77 77 78 79 80 80 80 80 79 78
329 280 246 175 168 153 60 8 315 288 274 267 271 101 82 105 120 127 130 126 118 111 106 99 92 86 82 80 78 77 77 80 81 82 81 80 80 80 80 81 81 80 80 78
287 308 325 351 29 21 27 15 340 297 277 277 308 101 108 115 129 133 133 128 122 118 114 107 99 93 89 87 85 84 82 83 86 86 86 84 84 85 87 87 85 82 80 77
292 351 61 64 69 69 53 31 18 7 348 334 26 72 85 112 129 136 135 133 130 127 121 116 110 105 99 94 92 90 89 88 90 90 88 87 87 87 86 84 82 80 76 73
347 10 135 122 115 103 72 41 28 30 18 11 51 71 62 84 101 118 134 138 137 132 126 120 114 110 104 101 99 96 93 92 92 92 91 91 91 89 87 85 82 77 71 64
41 263 262 179 188 227 89 32 21 36 25 1 38 65 83 93 97 107 120 132 132 128 125 121 117 111 107 103 101 98 98 98 97 96 96 95 92 88 86 84 80 73 68 63
337 296 285 239 221 214 76 47 22 47 50 50 79 94 95 98 91 87 103 117 117 118 120 119 117 114 111 109 107 106 108 107 103 100 97 94 91 88 84 79 72 62 55 50
354 310 302 285 247 118 114 48 359 346 62 54 95 108 111 115 100 77 83 104 112 114 115 116 117 117 118 118 118 115 112 109 104 98 94 89 86 85 79 70 63 53 46 43
102 299 292 305 306 63 73 31 348 272 114 67 100 126 137 151 123 105 106 107 109 111 114 116 116 117 118 122 124 119 114 107 98 93 89 86 80 73 68 63 54 52 44 38
234 304 351 347 12 81 44 346 275 286 66 73 93 117 122 90 90 115 117 112 114 117 122 124 123 121 122 127 124 114 108 99 93 93 89 83 77 76 71 64 55 43 39 39
328 342 28 316 326 79 34 3 24 54 82 95 102 108 105 103 109 115 118 119 122 123 125 127 126 124 126 128 126 116 105 100 100 98 91 80 69 61 75 72 59 38 16 34
8 13 19 24 52 77 65 65 75 94 103 105 112 117 119 119 120 121 122 125 126 127 129 132 130 127 126 126 123 114 111 111 107 97 81 74 75 67 60 58 56 38 20 15
129 130 138 124 116 109 101 97 96 95 102 109 117 123 127 126 128 128 128 128 131 133 135 137 136 129 122 118 115 113 114 110 101 82 69 75 85 90 83 38 27 20 19 19
121 169 166 133 129 132 123 111 107 106 110 113 118 124 128 130 132 132 132 134 134 132 133 134 130 126 123 121 117 113 105 98 86 77 69 62 78 79 96 75 38 19 45 28
163 186 238 110 150 152 134 130 127 124 122 124 124 124 128 131 131 132 131 132 132 132 133 132 130 127 125 128 124 113 106 85 31 55 59 60 74 82 95 116 123 79 48 89